EZY8883 LOWW-EGKK

Flight info

Callsign EZY8883
Flight time 1h 53m
Altitude 36000
Route MEDIX DCT LAMSI DCT INBED DCT BOMBI DCT DENUT L610 TEBRA
Aircraft A320/M-SDE3FGHIRWY/LB1

Departure

Time 2026-04-23 18:54
Airport Vienna International Airport (LOWW)

Arrival

Time 2026-04-23 20:47
Airport London Gatwick Airport (EGKK)
Time Latitude Longitude Altitude Speed Heading
2026-04-23 18:18 48.12018 16.55610 599 ft 0 kts 112°
2026-04-23 18:22 48.12018 16.55609 599 ft 0 kts 112°
2026-04-23 18:45 48.12019 16.55605 599 ft 2 kts 112°
2026-04-23 18:45 48.12027 16.55584 599 ft 2 kts 118°
2026-04-23 18:45 48.12036 16.55564 599 ft 2 kts 136°
2026-04-23 18:46 48.12049 16.55549 598 ft 2 kts 168°
2026-04-23 18:46 48.12065 16.55547 597 ft 2 kts 196°
2026-04-23 18:46 48.12076 16.55552 596 ft 0 kts 207°
2026-04-23 18:49 48.12068 16.55547 597 ft 6 kts 204°
2026-04-23 18:49 48.12038 16.55526 599 ft 5 kts 206°
2026-04-23 18:49 48.11981 16.55484 602 ft 14 kts 206°
2026-04-23 18:49 48.11906 16.55440 605 ft 10 kts 190°
2026-04-23 18:50 48.11865 16.55431 606 ft 8 kts 191°
2026-04-23 18:50 48.11799 16.55469 614 ft 13 kts 124°
2026-04-23 18:50 48.11758 16.55591 620 ft 11 kts 116°
2026-04-23 18:50 48.11724 16.55697 621 ft 14 kts 116°
2026-04-23 18:51 48.11672 16.55858 628 ft 17 kts 116°
2026-04-23 18:51 48.11623 16.56006 626 ft 15 kts 116°
2026-04-23 18:51 48.11568 16.56178 626 ft 24 kts 115°
2026-04-23 18:51 48.11489 16.56423 612 ft 28 kts 116°
2026-04-23 18:52 48.11403 16.56684 618 ft 28 kts 116°
2026-04-23 18:52 48.11322 16.56934 622 ft 26 kts 115°
2026-04-23 18:52 48.11253 16.57150 626 ft 15 kts 117°
2026-04-23 18:52 48.11207 16.57234 624 ft 8 kts 155°
2026-04-23 18:53 48.11155 16.57217 624 ft 9 kts 207°
2026-04-23 18:53 48.11083 16.57120 633 ft 18 kts 246°
2026-04-23 18:53 48.11108 16.56938 633 ft 21 kts 296°
2026-04-23 18:53 48.11238 16.56545 626 ft 75 kts 297°
2026-04-23 18:54 48.11558 16.55559 618 ft 132 kts 296°
2026-04-23 18:54 48.12017 16.54120 763 ft 162 kts 297°
2026-04-23 18:54 48.12267 16.53082 1248 ft 162 kts 281°
2026-04-23 18:54 48.12213 16.51369 1906 ft 170 kts 272°
2026-04-23 18:55 48.12000 16.49512 2275 ft 192 kts 269°
2026-04-23 18:55 48.11736 16.47414 2593 ft 218 kts 266°
2026-04-23 18:55 48.11344 16.45074 3017 ft 244 kts 264°
2026-04-23 18:55 48.10878 16.42571 3735 ft 254 kts 263°
2026-04-23 18:56 48.10392 16.40014 4646 ft 256 kts 262°
2026-04-23 18:56 48.09935 16.37442 5614 ft 254 kts 268°
2026-04-23 18:56 48.09847 16.34827 6553 ft 251 kts 277°
2026-04-23 18:56 48.09874 16.32208 7365 ft 255 kts 278°
2026-04-23 18:57 48.09918 16.29525 8116 ft 261 kts 278°
2026-04-23 18:57 48.09969 16.26776 8851 ft 268 kts 278°
2026-04-23 18:57 48.10024 16.23951 9586 ft 275 kts 278°
2026-04-23 18:57 48.10137 16.21079 10274 ft 278 kts 285°
2026-04-23 18:58 48.10656 16.18259 10646 ft 290 kts 296°
2026-04-23 18:58 48.11391 16.15320 10911 ft 312 kts 295°
2026-04-23 18:58 48.12164 16.12234 11454 ft 321 kts 295°
2026-04-23 18:58 48.12947 16.09073 12107 ft 327 kts 295°
2026-04-23 18:59 48.13741 16.05848 12779 ft 333 kts 295°
2026-04-23 18:59 48.14545 16.02566 13457 ft 338 kts 295°
2026-04-23 18:59 48.15360 15.99230 14096 ft 344 kts 294°
2026-04-23 18:59 48.16187 15.95848 14689 ft 348 kts 294°
2026-04-23 19:00 48.17007 15.92470 15294 ft 352 kts 294°
2026-04-23 19:00 48.17846 15.89005 15901 ft 355 kts 295°
2026-04-23 19:00 48.18692 15.85507 16528 ft 359 kts 295°
2026-04-23 19:00 48.19547 15.81975 17131 ft 362 kts 294°
2026-04-23 19:01 48.20412 15.78404 17712 ft 366 kts 295°
2026-04-23 19:01 48.21285 15.74794 18305 ft 370 kts 295°
2026-04-23 19:01 48.22167 15.71144 18822 ft 374 kts 294°
2026-04-23 19:01 48.23056 15.67449 19308 ft 379 kts 294°
2026-04-23 19:02 48.23954 15.63705 19791 ft 383 kts 294°
2026-04-23 19:02 48.24862 15.59920 20275 ft 388 kts 295°
2026-04-23 19:02 48.25782 15.56094 20764 ft 392 kts 295°
2026-04-23 19:02 48.26713 15.52230 21257 ft 396 kts 295°
2026-04-23 19:03 48.27652 15.48323 21749 ft 400 kts 295°
2026-04-23 19:03 48.28597 15.44372 22241 ft 404 kts 295°
2026-04-23 19:03 48.29544 15.40375 22725 ft 409 kts 295°
2026-04-23 19:03 48.30445 15.36307 23193 ft 414 kts 293°
2026-04-23 19:04 48.31307 15.32144 23647 ft 419 kts 292°
2026-04-23 19:04 48.32147 15.27941 24035 ft 423 kts 292°
2026-04-23 19:04 48.32987 15.23694 24441 ft 425 kts 292°
2026-04-23 19:04 48.33833 15.19423 24842 ft 428 kts 292°
2026-04-23 19:05 48.34692 15.15126 25207 ft 431 kts 292°
2026-04-23 19:05 48.35565 15.10802 25592 ft 433 kts 292°
2026-04-23 19:05 48.36447 15.06455 25975 ft 436 kts 293°
2026-04-23 19:05 48.37333 15.02085 26348 ft 438 kts 293°
2026-04-23 19:06 48.38223 14.97690 26702 ft 440 kts 292°
2026-04-23 19:06 48.39117 14.93270 27067 ft 443 kts 292°
2026-04-23 19:06 48.40013 14.88826 27425 ft 445 kts 292°
2026-04-23 19:06 48.40909 14.84357 27775 ft 447 kts 292°
2026-04-23 19:07 48.41798 14.79914 28098 ft 449 kts 292°
2026-04-23 19:07 48.42711 14.75348 28442 ft 452 kts 292°
2026-04-23 19:07 48.43604 14.70867 28764 ft 454 kts 292°
2026-04-23 19:07 48.44511 14.66302 29086 ft 456 kts 292°
2026-04-23 19:08 48.45420 14.61713 29392 ft 458 kts 292°
2026-04-23 19:08 48.46330 14.57099 29698 ft 460 kts 292°
2026-04-23 19:08 48.47243 14.52464 30014 ft 462 kts 292°
2026-04-23 19:08 48.48161 14.47797 30311 ft 465 kts 292°
2026-04-23 19:09 48.49078 14.43128 30559 ft 466 kts 292°
2026-04-23 19:09 48.50000 14.38418 30799 ft 468 kts 292°
2026-04-23 19:09 48.50924 14.33693 31003 ft 471 kts 292°
2026-04-23 19:09 48.51851 14.28944 31230 ft 473 kts 292°
2026-04-23 19:10 48.52780 14.24174 31453 ft 475 kts 292°
2026-04-23 19:10 48.53708 14.19400 31731 ft 475 kts 292°
2026-04-23 19:10 48.54633 14.14610 32066 ft 474 kts 291°
2026-04-23 19:10 48.55552 14.09838 32381 ft 473 kts 291°
2026-04-23 19:11 48.56468 14.05073 32664 ft 473 kts 291°
2026-04-23 19:11 48.57385 14.00297 32960 ft 472 kts 291°
2026-04-23 19:11 48.58284 13.95600 33235 ft 472 kts 291°
2026-04-23 19:11 48.59194 13.90830 33518 ft 473 kts 291°
2026-04-23 19:12 48.59807 13.87603 33732 ft 472 kts 291°
2026-04-23 19:12 48.61005 13.81295 34148 ft 471 kts 291°
2026-04-23 19:12 48.61908 13.76535 34421 ft 471 kts 291°
2026-04-23 19:12 48.62809 13.71781 34689 ft 470 kts 291°
2026-04-23 19:13 48.63708 13.67031 34949 ft 470 kts 291°
2026-04-23 19:13 48.64600 13.62286 35197 ft 469 kts 291°
2026-04-23 19:13 48.65573 13.57614 35428 ft 463 kts 297°
2026-04-23 19:13 48.66850 13.53148 35628 ft 461 kts 300°
2026-04-23 19:14 48.68148 13.48719 35860 ft 461 kts 300°
2026-04-23 19:14 48.69448 13.44275 36091 ft 460 kts 300°
2026-04-23 19:14 48.70744 13.39838 36206 ft 459 kts 300°
2026-04-23 19:15 48.73300 13.31060 36235 ft 454 kts 300°
2026-04-23 19:15 48.75838 13.22304 36236 ft 453 kts 299°
2026-04-23 19:16 48.78369 13.13555 36229 ft 453 kts 299°
2026-04-23 19:16 48.80867 13.04863 36234 ft 452 kts 299°
2026-04-23 19:17 48.84638 12.91668 36238 ft 452 kts 299°
2026-04-23 19:17 48.87123 12.82964 36240 ft 452 kts 299°
2026-04-23 19:18 48.89617 12.74188 36241 ft 452 kts 299°
2026-04-23 19:18 48.92107 12.65399 36244 ft 452 kts 299°
2026-04-23 19:19 48.95824 12.52220 36248 ft 452 kts 298°
2026-04-23 19:20 48.99516 12.39036 36229 ft 452 kts 298°
2026-04-23 19:20 49.01972 12.30220 36236 ft 452 kts 298°
2026-04-23 19:21 49.05651 12.16956 36232 ft 453 kts 298°
2026-04-23 19:22 49.08100 12.08100 36227 ft 453 kts 298°
2026-04-23 19:22 49.11766 11.94800 36210 ft 453 kts 297°
2026-04-23 19:23 49.14193 11.85915 36204 ft 453 kts 297°
2026-04-23 19:24 49.17798 11.72638 36230 ft 453 kts 297°
2026-04-23 19:24 49.21406 11.59305 36240 ft 452 kts 297°
2026-04-23 19:25 49.26199 11.41509 36266 ft 452 kts 296°
2026-04-23 19:26 49.29775 11.28131 36269 ft 453 kts 296°
2026-04-23 19:27 49.35706 11.05763 36235 ft 453 kts 296°
2026-04-23 19:28 49.40575 10.87944 36254 ft 451 kts 300°
2026-04-23 19:29 49.44888 10.75106 36259 ft 451 kts 301°
2026-04-23 19:30 49.49140 10.62250 36254 ft 452 kts 300°
2026-04-23 19:31 49.53286 10.49227 36257 ft 451 kts 299°
2026-04-23 19:31 49.56049 10.40562 36260 ft 451 kts 299°
2026-04-23 19:32 49.58815 10.31880 36250 ft 451 kts 299°
2026-04-23 19:32 49.61580 10.23191 36265 ft 451 kts 299°
2026-04-23 19:33 49.64339 10.14486 36267 ft 452 kts 298°
2026-04-23 19:33 49.68463 10.01390 36271 ft 452 kts 298°
2026-04-23 19:34 49.71202 9.92651 36269 ft 453 kts 298°
2026-04-23 19:35 49.75311 9.79486 36264 ft 454 kts 298°
2026-04-23 19:35 49.78044 9.70686 36267 ft 454 kts 298°
2026-04-23 19:36 49.80779 9.61875 36269 ft 454 kts 298°
2026-04-23 19:36 49.83484 9.53116 36269 ft 454 kts 297°
2026-04-23 19:37 49.86200 9.44286 36273 ft 454 kts 297°
2026-04-23 19:37 49.88926 9.35387 36273 ft 455 kts 297°
2026-04-23 19:38 49.91634 9.26523 36272 ft 455 kts 297°
2026-04-23 19:38 49.94315 9.17703 36272 ft 455 kts 297°
2026-04-23 19:39 49.97013 9.08816 36269 ft 455 kts 297°
2026-04-23 19:39 49.99704 8.99912 36266 ft 455 kts 297°
2026-04-23 19:40 50.02383 8.90994 36267 ft 455 kts 297°
2026-04-23 19:40 50.05066 8.82058 36264 ft 456 kts 296°
2026-04-23 19:41 50.07593 8.73007 36261 ft 456 kts 293°
2026-04-23 19:41 50.09535 8.65304 36260 ft 456 kts 292°
2026-04-23 19:42 50.12186 8.54585 36261 ft 456 kts 292°
2026-04-23 19:42 50.14506 8.45382 36268 ft 456 kts 293°
2026-04-23 19:43 50.16847 8.36193 36276 ft 456 kts 293°
2026-04-23 19:43 50.18783 8.28554 36279 ft 456 kts 293°
2026-04-23 19:44 50.21094 8.19344 36280 ft 456 kts 292°
2026-04-23 19:44 50.23774 8.08619 36291 ft 456 kts 292°
2026-04-23 19:45 50.25697 8.00887 36294 ft 456 kts 292°
2026-04-23 19:45 50.27993 7.91638 36311 ft 456 kts 292°
2026-04-23 19:46 50.30284 7.82399 36307 ft 456 kts 291°
2026-04-23 19:46 50.32565 7.73138 36312 ft 456 kts 291°
2026-04-23 19:47 50.34837 7.63866 36314 ft 456 kts 291°
2026-04-23 19:47 50.37090 7.54654 36319 ft 456 kts 291°
2026-04-23 19:48 50.39346 7.45370 36320 ft 456 kts 291°
2026-04-23 19:48 50.41590 7.36073 36321 ft 456 kts 291°
2026-04-23 19:49 50.43831 7.26779 36327 ft 456 kts 290°
2026-04-23 19:49 50.46063 7.17470 36333 ft 455 kts 290°
2026-04-23 19:50 50.48236 7.08131 36333 ft 455 kts 289°
2026-04-23 19:50 50.50311 6.98741 36338 ft 455 kts 289°
2026-04-23 19:51 50.52369 6.89331 36335 ft 456 kts 288°
2026-04-23 19:51 50.54445 6.79914 36348 ft 456 kts 288°
2026-04-23 19:52 50.56527 6.70490 36346 ft 456 kts 288°
2026-04-23 19:52 50.58594 6.61061 36348 ft 456 kts 288°
2026-04-23 19:53 50.60653 6.51602 36353 ft 456 kts 288°
2026-04-23 19:53 50.62703 6.42162 36358 ft 456 kts 288°
2026-04-23 19:54 50.64748 6.32710 36354 ft 455 kts 288°
2026-04-23 19:54 50.66779 6.23269 36353 ft 455 kts 287°
2026-04-23 19:55 50.68793 6.13876 36359 ft 455 kts 287°
2026-04-23 19:55 50.70803 6.04414 36369 ft 455 kts 287°
2026-04-23 19:56 50.72809 5.94936 36357 ft 455 kts 287°
2026-04-23 19:56 50.74812 5.85470 36361 ft 454 kts 287°
2026-04-23 19:57 50.76805 5.76000 36363 ft 454 kts 287°
2026-04-23 19:57 50.78788 5.66535 36363 ft 454 kts 287°
2026-04-23 19:58 50.80758 5.57061 36368 ft 454 kts 286°
2026-04-23 19:58 50.82720 5.47583 36360 ft 454 kts 286°
2026-04-23 19:59 50.84672 5.38090 36363 ft 454 kts 286°
2026-04-23 19:59 50.86626 5.28586 36360 ft 453 kts 285°
2026-04-23 20:00 50.88565 5.19087 36359 ft 453 kts 285°
2026-04-23 20:00 50.90497 5.09584 36372 ft 453 kts 285°
2026-04-23 20:01 50.92428 5.00066 36363 ft 454 kts 285°
2026-04-23 20:01 50.94345 4.90534 36367 ft 453 kts 285°
2026-04-23 20:02 50.96251 4.81000 36365 ft 454 kts 285°
2026-04-23 20:02 50.98159 4.71455 36385 ft 454 kts 285°
2026-04-23 20:03 51.00056 4.61904 36392 ft 453 kts 284°
2026-04-23 20:03 51.01938 4.52342 36385 ft 453 kts 284°
2026-04-23 20:04 51.03809 4.42789 36384 ft 453 kts 284°
2026-04-23 20:04 51.05681 4.33228 36383 ft 453 kts 284°
2026-04-23 20:05 51.07545 4.23662 36384 ft 453 kts 284°
2026-04-23 20:05 51.09392 4.14076 36382 ft 453 kts 284°
2026-04-23 20:06 51.11221 4.04562 36379 ft 453 kts 284°
2026-04-23 20:06 51.13055 3.95034 36373 ft 442 kts 284°
2026-04-23 20:06 51.13940 3.90436 36362 ft 427 kts 284°
2026-04-23 20:07 51.14799 3.85945 36056 ft 420 kts 283°
2026-04-23 20:07 51.15638 3.81524 35728 ft 414 kts 283°
2026-04-23 20:07 51.16465 3.77148 35425 ft 411 kts 283°
2026-04-23 20:07 51.17287 3.72788 35106 ft 411 kts 283°
2026-04-23 20:08 51.18107 3.68426 34792 ft 411 kts 283°
2026-04-23 20:08 51.18927 3.64055 34480 ft 412 kts 282°
2026-04-23 20:08 51.19744 3.59675 34148 ft 413 kts 282°
2026-04-23 20:08 51.20566 3.55283 33791 ft 413 kts 283°
2026-04-23 20:09 51.21390 3.50888 33441 ft 414 kts 283°
2026-04-23 20:09 51.22210 3.46486 33095 ft 414 kts 282°
2026-04-23 20:09 51.23029 3.42074 32761 ft 415 kts 282°
2026-04-23 20:09 51.23846 3.37665 32424 ft 415 kts 282°
2026-04-23 20:10 51.24388 3.34733 32204 ft 416 kts 282°
2026-04-23 20:10 51.25481 3.28811 31778 ft 416 kts 282°
2026-04-23 20:10 51.26297 3.24375 31449 ft 417 kts 282°
2026-04-23 20:10 51.27115 3.19933 31138 ft 417 kts 282°
2026-04-23 20:11 51.27922 3.15532 30816 ft 418 kts 282°
2026-04-23 20:11 51.28738 3.11075 30500 ft 418 kts 282°
2026-04-23 20:11 51.29554 3.06610 30138 ft 419 kts 282°
2026-04-23 20:11 51.30366 3.02143 29771 ft 418 kts 282°
2026-04-23 20:12 51.31178 2.97678 29421 ft 418 kts 282°
2026-04-23 20:12 51.32799 2.88743 29385 ft 419 kts 282°
2026-04-23 20:13 51.34411 2.79787 29404 ft 419 kts 282°
2026-04-23 20:13 51.35934 2.70660 29295 ft 429 kts 278°
2026-04-23 20:13 51.36551 2.66007 28686 ft 426 kts 277°
2026-04-23 20:14 51.37091 2.61363 28119 ft 423 kts 276°
2026-04-23 20:14 51.37598 2.56750 27582 ft 419 kts 276°
2026-04-23 20:14 51.38097 2.52232 26996 ft 418 kts 277°
2026-04-23 20:14 51.38616 2.47689 26591 ft 412 kts 277°
2026-04-23 20:15 51.39148 2.43181 26092 ft 410 kts 278°
2026-04-23 20:15 51.39687 2.38711 25550 ft 409 kts 278°
2026-04-23 20:15 51.40225 2.34284 25202 ft 401 kts 278°
2026-04-23 20:15 51.40757 2.29932 24460 ft 395 kts 278°
2026-04-23 20:16 51.41273 2.25684 23980 ft 382 kts 278°
2026-04-23 20:16 51.41774 2.21582 23477 ft 368 kts 278°
2026-04-23 20:16 51.42261 2.17627 23042 ft 355 kts 278°
2026-04-23 20:16 51.42732 2.13779 22620 ft 351 kts 278°
2026-04-23 20:17 51.43196 2.09949 22209 ft 349 kts 278°
2026-04-23 20:17 51.43656 2.06135 21795 ft 348 kts 278°
2026-04-23 20:17 51.44113 2.02338 21390 ft 346 kts 278°
2026-04-23 20:17 51.44569 1.98556 20979 ft 345 kts 279°
2026-04-23 20:18 51.45018 1.94785 20571 ft 344 kts 278°
2026-04-23 20:18 51.45462 1.91024 20179 ft 343 kts 278°
2026-04-23 20:18 51.45903 1.87263 19770 ft 342 kts 278°
2026-04-23 20:18 51.46337 1.83515 19366 ft 342 kts 277°
2026-04-23 20:19 51.46769 1.79780 18970 ft 341 kts 278°
2026-04-23 20:19 51.47200 1.76033 18543 ft 341 kts 278°
2026-04-23 20:19 51.47628 1.72301 18125 ft 339 kts 278°
2026-04-23 20:19 51.48052 1.68595 17735 ft 337 kts 279°
2026-04-23 20:20 51.48454 1.64957 17344 ft 334 kts 275°
2026-04-23 20:20 51.48512 1.61256 16971 ft 331 kts 263°
2026-04-23 20:20 51.48073 1.57615 16589 ft 327 kts 250°
2026-04-23 20:20 51.47313 1.54252 16226 ft 325 kts 247°
2026-04-23 20:21 51.46515 1.50804 15857 ft 324 kts 248°
2026-04-23 20:21 51.45743 1.47469 15496 ft 324 kts 248°
2026-04-23 20:21 51.44962 1.44085 15233 ft 324 kts 248°
2026-04-23 20:21 51.44158 1.40719 14765 ft 323 kts 243°
2026-04-23 20:22 51.43002 1.37660 14462 ft 321 kts 229°
2026-04-23 20:22 51.41447 1.35113 14220 ft 319 kts 216°
2026-04-23 20:22 51.39672 1.33008 13961 ft 319 kts 213°
2026-04-23 20:22 51.37887 1.30911 13751 ft 318 kts 213°
2026-04-23 20:23 51.36103 1.28803 13538 ft 318 kts 214°
2026-04-23 20:23 51.34331 1.26703 13339 ft 316 kts 214°
2026-04-23 20:23 51.32566 1.24610 13119 ft 315 kts 214°
2026-04-23 20:23 51.30818 1.22535 12904 ft 313 kts 213°
2026-04-23 20:24 51.29074 1.20468 12698 ft 312 kts 213°
2026-04-23 20:24 51.27333 1.18409 12479 ft 311 kts 213°
2026-04-23 20:24 51.25594 1.16360 12284 ft 310 kts 213°
2026-04-23 20:24 51.23860 1.14325 12072 ft 309 kts 213°
2026-04-23 20:25 51.22129 1.12295 11866 ft 309 kts 213°
2026-04-23 20:25 51.20399 1.10269 11661 ft 309 kts 213°
2026-04-23 20:25 51.18669 1.08250 11440 ft 308 kts 213°
2026-04-23 20:25 51.16947 1.06239 11245 ft 307 kts 213°
2026-04-23 20:26 51.15228 1.04235 11026 ft 306 kts 213°
2026-04-23 20:26 51.13507 1.02229 10831 ft 306 kts 213°
2026-04-23 20:26 51.11790 1.00228 10632 ft 306 kts 213°
2026-04-23 20:26 51.10076 0.98232 10412 ft 305 kts 213°
2026-04-23 20:27 51.08396 0.96274 10218 ft 302 kts 213°
2026-04-23 20:27 51.06731 0.94229 10000 ft 303 kts 220°
2026-04-23 20:27 51.05366 0.91674 9819 ft 304 kts 236°
2026-04-23 20:27 51.04392 0.88690 9622 ft 304 kts 244°
2026-04-23 20:28 51.03495 0.85648 9427 ft 304 kts 243°
2026-04-23 20:28 51.02595 0.82618 9225 ft 303 kts 243°
2026-04-23 20:28 51.01709 0.79588 9036 ft 302 kts 248°
2026-04-23 20:28 51.01183 0.76364 8914 ft 302 kts 257°
2026-04-23 20:29 51.00755 0.73102 8787 ft 301 kts 257°
2026-04-23 20:29 51.00329 0.69847 8651 ft 301 kts 258°
2026-04-23 20:29 50.99905 0.66599 8540 ft 300 kts 258°
2026-04-23 20:29 50.99483 0.63358 8416 ft 300 kts 258°
2026-04-23 20:30 50.99062 0.60121 8290 ft 299 kts 258°
2026-04-23 20:30 50.98216 0.53670 8047 ft 298 kts 257°
2026-04-23 20:30 50.97792 0.50455 7922 ft 297 kts 257°
2026-04-23 20:31 50.97373 0.47272 7793 ft 289 kts 257°
2026-04-23 20:31 50.96968 0.44213 7663 ft 277 kts 257°
2026-04-23 20:31 50.96707 0.42262 7579 ft 270 kts 257°
2026-04-23 20:31 50.96322 0.39391 7462 ft 264 kts 257°
2026-04-23 20:32 50.95941 0.36553 7421 ft 262 kts 257°
2026-04-23 20:32 50.95563 0.33732 7422 ft 262 kts 257°
2026-04-23 20:32 50.95097 0.29970 7419 ft 262 kts 259°
2026-04-23 20:32 50.94792 0.28088 7417 ft 261 kts 250°
2026-04-23 20:33 50.94150 0.25392 7416 ft 261 kts 246°
2026-04-23 20:33 50.93250 0.21859 7410 ft 261 kts 246°
2026-04-23 20:33 50.92787 0.20056 7407 ft 261 kts 246°
2026-04-23 20:33 50.92102 0.17388 7399 ft 261 kts 246°
2026-04-23 20:34 50.91417 0.14723 7394 ft 261 kts 246°
2026-04-23 20:34 50.90734 0.12054 7390 ft 261 kts 249°
2026-04-23 20:34 50.90418 0.09234 7384 ft 262 kts 273°
2026-04-23 20:34 50.90633 0.06389 7191 ft 260 kts 280°
2026-04-23 20:35 50.90941 0.03615 6733 ft 259 kts 281°
2026-04-23 20:35 50.91266 0.00831 6206 ft 256 kts 281°
2026-04-23 20:35 50.91592 -0.01933 5812 ft 255 kts 281°
2026-04-23 20:35 50.91922 -0.04699 5474 ft 256 kts 281°
2026-04-23 20:36 50.92259 -0.07478 5164 ft 256 kts 281°
2026-04-23 20:36 50.92595 -0.10236 4986 ft 255 kts 281°
2026-04-23 20:36 50.92931 -0.12990 4986 ft 255 kts 281°
2026-04-23 20:36 50.93271 -0.15744 4909 ft 254 kts 281°
2026-04-23 20:37 50.93611 -0.18486 4540 ft 253 kts 281°
2026-04-23 20:37 50.93953 -0.21226 4182 ft 252 kts 281°
2026-04-23 20:37 50.94290 -0.23935 3982 ft 250 kts 281°
2026-04-23 20:37 50.94629 -0.26656 3988 ft 252 kts 281°
2026-04-23 20:38 50.94972 -0.29387 3985 ft 253 kts 281°
2026-04-23 20:38 50.95313 -0.32125 3986 ft 253 kts 281°
2026-04-23 20:38 50.95684 -0.34852 3984 ft 252 kts 289°
2026-04-23 20:38 50.96585 -0.37182 3941 ft 248 kts 315°
2026-04-23 20:39 50.97818 -0.39085 3596 ft 247 kts 320°
2026-04-23 20:39 50.99081 -0.40894 3341 ft 237 kts 321°
2026-04-23 20:39 51.00257 -0.42592 3217 ft 220 kts 321°
2026-04-23 20:39 51.01337 -0.44177 3149 ft 207 kts 321°
2026-04-23 20:40 51.02381 -0.45723 3059 ft 204 kts 321°
2026-04-23 20:40 51.03411 -0.47254 2995 ft 202 kts 321°
2026-04-23 20:40 51.04439 -0.48784 3009 ft 202 kts 321°
2026-04-23 20:40 51.05464 -0.50311 3012 ft 202 kts 321°
2026-04-23 20:41 51.06489 -0.51839 3008 ft 202 kts 321°
2026-04-23 20:41 51.07648 -0.52989 3005 ft 192 kts 353°
2026-04-23 20:41 51.08904 -0.52796 3008 ft 179 kts 31°
2026-04-23 20:41 51.09962 -0.51796 3010 ft 176 kts 40°
2026-04-23 20:42 51.10790 -0.50453 2994 ft 167 kts 73°
2026-04-23 20:42 51.10795 -0.48645 3012 ft 166 kts 98°
2026-04-23 20:42 51.10907 -0.46832 3015 ft 168 kts 75°
2026-04-23 20:42 51.11184 -0.45087 3004 ft 155 kts 79°
2026-04-23 20:43 51.11413 -0.43450 2993 ft 149 kts 80°
2026-04-23 20:43 51.11634 -0.41868 2879 ft 148 kts 80°
2026-04-23 20:43 51.11855 -0.40286 2715 ft 145 kts 80°
2026-04-23 20:43 51.12072 -0.38736 2535 ft 142 kts 79°
2026-04-23 20:44 51.12286 -0.37207 2353 ft 141 kts 79°
2026-04-23 20:44 51.12499 -0.35682 2155 ft 141 kts 80°
2026-04-23 20:44 51.12712 -0.34159 1947 ft 141 kts 79°
2026-04-23 20:44 51.12924 -0.32638 1765 ft 141 kts 79°
2026-04-23 20:45 51.13132 -0.31152 1566 ft 131 kts 78°
2026-04-23 20:45 51.13322 -0.29789 1396 ft 123 kts 79°
2026-04-23 20:45 51.13506 -0.28464 1235 ft 122 kts 78°
2026-04-23 20:45 51.13689 -0.27149 1066 ft 122 kts 76°
2026-04-23 20:46 51.13874 -0.25820 894 ft 124 kts 76°
2026-04-23 20:46 51.14061 -0.24469 732 ft 125 kts 77°
2026-04-23 20:46 51.14243 -0.23119 526 ft 125 kts 76°
2026-04-23 20:46 51.14426 -0.21775 372 ft 123 kts 76°
2026-04-23 20:47 51.14611 -0.20467 237 ft 122 kts 75°
2026-04-23 20:47 51.14786 -0.19263 214 ft 91 kts 76°
2026-04-23 20:47 51.14860 -0.18719 208 ft 25 kts 76°
2026-04-23 20:47 51.14934 -0.18534 204 ft 12 kts 55°
2026-04-23 20:48 51.14980 -0.18437 205 ft 9 kts 51°
2026-04-23 20:48 51.15000 -0.18397 209 ft 5 kts 51°
2026-04-23 20:48 51.15007 -0.18384 217 ft 0 kts 51°
2026-04-23 20:48 51.15007 -0.18383 217 ft 0 kts 51°
2026-04-23 20:49 51.15014 -0.18369 217 ft 5 kts 51°
2026-04-23 20:49 51.15059 -0.18280 210 ft 14 kts 51°
2026-04-23 20:49 51.15132 -0.18197 210 ft 13 kts
2026-04-23 20:49 51.15223 -0.18218 206 ft 14 kts 347°
2026-04-23 20:50 51.15330 -0.18258 213 ft 17 kts 344°
2026-04-23 20:50 51.15423 -0.18271 212 ft 10 kts 32°
2026-04-23 20:50 51.15450 -0.18161 207 ft 12 kts 76°
2026-04-23 20:50 51.15471 -0.18021 208 ft 14 kts 78°
2026-04-23 20:51 51.15493 -0.17863 208 ft 16 kts 78°
2026-04-23 20:51 51.15511 -0.17721 205 ft 11 kts 78°
2026-04-23 20:51 51.15524 -0.17626 209 ft 5 kts 78°
2026-04-23 20:51 51.15554 -0.17604 205 ft 7 kts 350°
2026-04-23 20:52 51.15585 -0.17614 211 ft 0 kts 348°